Weather in Puerto Morelos

Mexico     20°50′47″N   86°52′36″W
temp.,
°C
wind,
m/s
gust,
m/s
humid.,
%
clouds,
%
prec.,
mm/h
press.,
hPa
HPBL,
m
4 march, thu
thu401:00+22nnw12810 0.0 101835
04:00+21nw018626 0.0 101730
07:00+20nw128813 0.0 101738
10:00+28wnw01580 0.0 1018620
13:00+29ese125811 0.3 1017863
16:00+26e247872 1.3 1015596
19:00+23ne269364 2.4 1015285
22:00+21n249752 0.1 1017187
5 march, fri
fri501:00+20nnw229838 0.2 101689
04:00+19nnw239714 0.0 101480
07:00+19n129614 0.0 101466
10:00+25ne236719 0.0 1016705
13:00+27e326042 0.0 1014994
16:00+27e336347 0.0 1012876
19:00+23ese248233 0.0 1012229
22:00+22e238836 0.0 1014170
6 march, sat
sat601:00+23ese138257 0.0 1014209
04:00+23e1285100 0.1 101289
07:00+23ne1288100 0.2 101481
10:00+25e238281 0.6 1016447
13:00+28se236356 0.9 10151038
16:00+23n129690 3.9 1013129
19:00+22nne269684 5.9 1014306
22:00+21n1295100 1.8 1016100
7 march, sun
sun701:00+20n239672 1.8 1016104
04:00+19nw229778 0.0 101680
07:00+19nw129847 0.0 101772
10:00+24n257410 0.0 1019735
13:00+27ne235722 0.0 10181274
16:00+26ene456139 0.2 10161021
19:00+23ne386620 0.3 1018378
22:00+20nne23770 0.0 1020198
8 march, mon
mon801:00+21ne27880 0.0 1020334
04:00+21ene25891 0.1 1019276
07:00+21ene389211 1.0 1021427
10:00+24ene487959 1.4 1023957
13:00+23e498668 4.2 1022924
16:00+26ene576441 0.9 10201294
19:00+22ene378536 1.5 1022368
22:00+21ene368710 0.3 1023304